CW1490 Weather Reports


time (UTC)temp
F
wind
direction
speed
knots
gust
knots
rain 1hr
in
rain 24hr
in
rain mn
in
humidity
%
barometer
mb
20260831145017 72 9 0.9 7.8 0.00 0.00 0.00 72 1021.0
20260831144516 72 55 4.3 9.6 0.00 0.00 0.00 70 1021.0
20260831144008 72 59 2.6 9.6 0.00 0.00 0.00 74 1021.2
20260831143512 71 56 3.5 9.6 0.00 0.00 0.00 74 1021.1
20260831143022 71 22 4.3 9.6 0.00 0.00 0.00 72 1021.1
20260831142510 70 341 4.3 7.8 0.00 0.00 0.00 74 1021.1
20260831142018 70 9 2.6 7.0 0.00 0.00 0.00 74 1021.2
20260831141527 70 9 2.6 6.1 0.00 0.00 0.00 77 1021.2
20260831141013 69 26 1.7 6.1 0.00 0.00 0.00 79 1021.2
20260831140514 68 64 0.9 7.0 0.00 0.00 0.00 80 1021.3
20260831140033 68 55 2.6 7.0 0.00 0.00 0.00 82 1021.3
20260831135514 67 51 1.7 7.0 0.00 0.00 0.00 85 1021.3
20260831135019 67 67 1.7 7.0 0.00 0.00 0.00 86 1021.4
20260831134540 66 51 2.6 6.1 0.00 0.00 0.00 86 1021.3
20260831134008 66 59 1.7 6.1 0.00 0.00 0.00 86 1021.3
20260831133507 66 22 1.7 7.0 0.00 0.00 0.00 89 1021.4
20260831133019 65 22 3.5 8.7 0.00 0.00 0.00 89 1021.4
20260831132510 64 27 4.3 8.7 0.00 0.00 0.00 91 1021.3
20260831132011 63 75 3.5 7.0 0.00 0.00 0.00 90 1021.4
20260831131529 64 67 2.6 5.2 0.00 0.00 0.00 91 1021.3
20260831131011 63 26 0.9 4.3 0.00 0.00 0.00 92 1021.4
20260831130513 62 22 1.7 4.3 0.00 0.00 0.00 93 1021.3
20260831130038 62 80 1.7 7.0 0.00 0.00 0.00 93 1021.4
20260831125522 62 34 2.6 7.0 0.00 0.00 0.00 93 1021.4
20260831125015 63 321 1.7 7.0 0.00 0.00 0.00 94 1021.4
20260831124545 62 313 2.6 7.8 0.00 0.00 0.00 94 1021.4
20260831124019 62 21 4.3 7.8 0.00 0.00 0.00 95 1021.4
20260831123518 61 51 3.5 7.0 0.00 0.00 0.00 95 1021.5
20260831123035 61 36 4.3 7.0 0.00 0.00 0.00 95 1021.5
20260831122520 61 48 3.5 7.0 0.00 0.00 0.00 95 1021.4
20260831122010 61 26 3.5 7.8 0.00 0.00 0.00 95 1021.4
20260831121543 61 39 2.6 8.7 0.00 0.00 0.00 95 1021.3
20260831121011 60 61 4.3 8.7 0.00 0.00 0.00 95 1021.3
20260831120511 60 51 5.2 9.6 0.00 0.00 0.00 95 1021.3
20260831120034 60 9 5.2 9.6 0.00 0.00 0.00 95 1021.4
20260831115512 60 17 4.3 8.7 0.00 0.00 0.00 95 1021.4
20260831115017 60 34 5.2 8.7 0.00 0.00 0.00 95 1021.4
20260831114533 60 344 4.3 8.7 0.00 0.00 0.00 95 1021.3
20260831114016 60 25 5.2 8.7 0.00 0.00 0.00 95 1021.2
20260831113516 60 51 3.5 7.8 0.00 0.00 0.00 95 1021.3
20260831113032 60 76 1.7 4.3 0.00 0.00 0.00 95 1021.3
20260831112518 59 34 2.6 4.3 0.00 0.00 0.00 95 1021.2
20260831112015 59 41 0.9 4.3 0.00 0.00 0.00 95 1021.1
20260831111531 59 360 0.9 4.3 0.00 0.00 0.00 95 1021.0
20260831111023 59 9 0.9 4.3 0.00 0.00 0.00 95 1020.9
20260831110510 59 336 1.7 7.0 0.00 0.00 0.00 95 1020.7
20260831110028 58 28 4.3 7.0 0.00 0.00 0.00 95 1020.7
20260831105513 58 30 1.7 3.5 0.00 0.00 0.00 95 1020.7
20260831105014 58 319 1.7 5.2 0.00 0.00 0.00 95 1020.6
20260831104529 58 9 0.9 7.0 0.00 0.00 0.00 94 1020.5
20260831104013 58 34 2.6 7.8 0.00 0.00 0.00 94 1020.5
20260831103504 58 336 2.6 7.8 0.00 0.00 0.00 94 1020.5
20260831103014 57 38 4.3 7.8 0.00 0.00 0.00 94 1020.5
20260831102506 57 44 4.3 6.1 0.00 0.00 0.00 94 1020.5
20260831102007 57 36 2.6 4.3 0.00 0.00 0.00 94 1020.5
20260831101522 57 28 2.6 3.5 0.00 0.00 0.00 94 1020.6
20260831101012 57 76 0.9 2.6 0.00 0.00 0.00 94 1020.6
20260831100508 57 178 0.0 1.7 0.00 0.00 0.00 94 1020.5
20260831100003 57 196 0.9 1.7 0.00 0.00 0.00 94 1020.5
20260831095502 57 232 0.9 2.6 0.00 0.00 0.00 94 1020.5
20260831095002 58 265 0.0 3.5 0.00 0.00 0.00 94 1020.4
20260831094505 58 325 0.9 3.5 0.00 0.00 0.00 94 1020.4
20260831094003 58 321 1.7 3.5 0.00 0.00 0.00 94 1020.4
20260831093504 58 9 0.9 4.3 0.00 0.00 0.00 94 1020.4
20260831093016 58 46 1.7 5.2 0.00 0.00 0.00 94 1020.3
20260831092504 58 26 1.7 6.1 0.00 0.00 0.00 94 1020.2
20260831092004 58 42 2.6 6.1 0.00 0.00 0.00 94 1020.2
20260831091513 58 67 2.6 5.2 0.00 0.00 0.00 93 1020.1
20260831091007 58 46 0.9 3.5 0.00 0.00 0.00 94 1020.1
20260831090507 58 38 1.7 3.5 0.00 0.00 0.00 94 1020.1
20260831090016 58 22 0.9 2.6 0.00 0.00 0.00 94 1020.1
20260831085512 58 34 0.9 2.6 0.00 0.00 0.00 93 1020.0
20260831085012 58 238 0.0 1.7 0.00 0.00 0.00 94 1020.0
20260831084505 58 34 0.0 2.6 0.00 0.00 0.00 93 1019.9
20260831084002 58 221 0.9 2.6 0.00 0.00 0.00 94 1020.0
20260831083503 58 178 0.0 1.7 0.00 0.00 0.00 93 1019.9
20260831083004 58 265 0.9 1.7 0.00 0.00 0.00 93 1019.7
20260831082504 59 9 0.9 1.7 0.00 0.00 0.00 93 1019.7
20260831082005 59 309 0.9 1.7 0.00 0.00 0.00 93 1019.6
20260831081511 59 221 0.0 1.7 0.00 0.00 0.00 93 1019.6
20260831081007 59 9 0.0 1.7 0.00 0.00 0.00 93 1019.6
20260831080512 59 221 0.9 1.7 0.00 0.00 0.00 93 1019.6
20260831080015 59 178 0.0 2.6 0.00 0.00 0.00 93 1019.5
20260831075514 59 178 0.9 2.6 0.00 0.00 0.00 93 1019.4
20260831075013 59 254 0.9 2.6 0.00 0.00 0.00 93 1019.4
20260831074525 60 265 0.9 2.6 0.00 0.00 0.00 93 1019.4
20260831074016 60 238 0.9 2.6 0.00 0.00 0.00 93 1019.5
20260831073518 60 265 0.9 1.7 0.00 0.00 0.00 92 1019.5
20260831073033 60 238 0.0 1.7 0.00 0.00 0.00 92 1019.5
20260831071509 60 67 0.0 1.7 0.00 0.00 0.00 92 1019.4
20260831071006 60 126 0.9 2.6 0.00 0.00 0.00 92 1019.3
20260831070508 60 265 0.9 2.6 0.00 0.00 0.00 92 1019.2
20260831070015 60 309 0.0 1.7 0.00 0.00 0.00 92 1019.2
20260831065509 61 291 0.0 1.7 0.00 0.00 0.00 92 1019.2
20260831065005 61 9 0.9 2.6 0.00 0.00 0.00 92 1019.2
20260831064517 61 325 0.9 2.6 0.00 0.00 0.00 92 1019.2
20260831064010 61 9 0.9 1.7 0.00 0.00 0.00 92 1019.3
20260831063511 61 51 0.0 2.6 0.00 0.00 0.00 91 1019.3
20260831063025 61 51 0.0 2.6 0.00 0.00 0.00 91 1019.3
20260831062517 61 309 0.9 2.6 0.00 0.00 0.00 91 1019.3
20260831062014 61 146 0.9 2.6 0.00 0.00 0.00 91 1019.3
20260831061531 61 196 0.9 2.6 0.00 0.00 0.00 91 1019.3
20260831061020 61 178 0.9 2.6 0.00 0.00 0.00 91 1019.3
20260831060503 61 137 0.0 1.7 0.00 0.00 0.00 91 1019.3
20260831060012 61 67 0.9 2.6 0.00 0.00 0.00 90 1019.3
20260831055506 62 212 0.9 2.6 0.00 0.00 0.00 90 1019.3
20260831055008 62 76 0.9 2.6 0.00 0.00 0.00 89 1019.1
20260831054514 62 247 1.7 2.6 0.00 0.00 0.00 89 1019.1
20260831054007 62 238 0.9 1.7 0.00 0.00 0.00 89 1019.2
20260831053515 62 146 0.0 3.5 0.00 0.00 0.00 89 1019.1
20260831053041 62 309 0.9 3.5 0.00 0.00 0.00 88 1019.0
20260831052510 63 67 1.7 4.3 0.00 0.00 0.00 88 1019.0
20260831052011 63 26 1.7 4.3 0.00 0.00 0.00 88 1019.0
20260831051532 63 34 2.6 7.0 0.00 0.00 0.00 87 1018.9
20260831051020 63 336 1.7 7.0 0.00 0.00 0.00 87 1018.9
20260831050514 63 15 3.5 6.1 0.00 0.00 0.00 86 1018.8
20260831050032 63 39 2.6 6.1 0.00 0.00 0.00 86 1018.9
20260831045514 64 76 3.5 6.1 0.00 0.00 0.00 84 1018.9
20260831045004 65 24 2.6 6.1 0.00 0.00 0.00 85 1018.8
20260831044514 64 321 2.6 6.1 0.00 0.00 0.00 86 1018.8
20260831044007 64 19 2.6 5.2 0.00 0.00 0.00 85 1018.8
20260831043508 64 20 2.6 4.3 0.00 0.00 0.00 83 1018.7
20260831043017 65 319 0.9 4.3 0.00 0.00 0.00 82 1018.6
20260831042514 66 26 1.7 6.1 0.00 0.00 0.00 83 1018.5
20260831042010 66 340 1.7 6.1 0.00 0.00 0.00 83 1018.5
20260831041531 65 9 1.7 6.1 0.00 0.00 0.00 83 1018.5
20260831041014 65 13 2.6 4.3 0.00 0.00 0.00 83 1018.6
20260831040514 66 9 1.7 7.8 0.00 0.00 0.00 82 1018.5
20260831040035 66 9 2.6 7.8 0.00 0.00 0.00 82 1018.4
20260831035514 66 32 5.2 7.8 0.00 0.00 0.00 83 1018.3
20260831035017 66 51 4.3 8.7 0.00 0.00 0.00 82 1018.4
20260831034530 67 34 0.9 8.7 0.00 0.00 0.00 80 1018.4
20260831034015 67 67 4.3 8.7 0.00 0.00 0.00 80 1018.5
20260831033516 67 32 1.7 6.1 0.00 0.00 0.00 81 1018.4
20260831033027 66 9 0.9 4.3 0.00 0.00 0.00 81 1018.5
20260831032509 66 314 1.7 4.3 0.00 0.00 0.00 81 1018.6
20260831032016 66 341 1.7 3.5 0.00 0.00 0.00 81 1018.5
20260831031519 66 51 0.9 2.6 0.00 0.00 0.00 81 1018.4
20260831031013 67 146 0.9 2.6 0.00 0.00 0.00 80 1018.3
20260831030509 67 9 0.0 2.6 0.00 0.00 0.00 79 1018.3
20260831030029 68 298 0.9 3.5 0.00 0.00 0.00 78 1018.3
20260831025513 68 338 1.7 6.1 0.00 0.00 0.00 77 1018.4
20260831024530 68 338 1.7 6.1 0.00 0.00 0.00 77 1018.4
20260831024017 69 316 1.7 7.8 0.00 0.00 0.00 76 1018.4
20260831023514 69 48 1.7 7.8 0.00 0.00 0.00 76 1018.4
20260831023037 69 9 1.7 6.1 0.00 0.00 0.00 76 1018.2
20260831022516 69 34 0.9 6.1 0.00 0.00 0.00 76 1018.2
20260831022019 70 247 0.9 5.2 0.00 0.00 0.00 75 1018.2
20260831021532 70 325 0.9 7.0 0.00 0.00 0.00 75 1018.1
20260831021009 70 342 1.7 8.7 0.00 0.00 0.00 75 1018.1
20260831020513 70 9 0.9 8.7 0.00 0.00 0.00 75 1018.1
20260831020046 69 238 2.6 6.1 0.00 0.00 0.00 76 1018.2
20260831015513 69 341 1.7 4.3 0.00 0.00 0.00 77 1018.3
20260831015014 69 316 1.7 4.3 0.00 0.00 0.00 76 1018.3
20260831014530 69 67 0.0 5.2 0.00 0.00 0.00 76 1018.3
20260831014016 69 67 2.6 5.2 0.00 0.00 0.00 76 1018.4
20260831013514 70 67 0.9 3.5 0.00 0.00 0.00 74 1018.2
20260831013035 70 205 0.9 2.6 0.00 0.00 0.00 74 1018.1
20260831012519 70 217 0.9 3.5 0.00 0.00 0.00 74 1018.2
20260831012019 70 51 1.7 6.1 0.00 0.00 0.00 73 1018.1
20260831011534 71 93 0.9 6.1 0.00 0.00 0.00 73 1018.0
20260831011018 71 200 4.3 8.7 0.00 0.00 0.00 72 1018.0
20260831010514 71 191 4.3 8.7 0.00 0.00 0.00 72 1018.0
20260831010021 71 168 2.6 7.0 0.00 0.00 0.00 70 1017.9
20260831005511 71 221 4.3 7.8 0.00 0.00 0.00 70 1017.9
20260831005012 71 247 2.6 10.4 0.00 0.00 0.00 71 1018.0
20260831004544 71 26 2.6 10.4 0.00 0.00 0.00 70 1017.9
20260831004013 71 336 3.5 10.4 0.00 0.00 0.00 71 1017.8
20260831003519 71 132 0.9 8.7 0.00 0.00 0.00 70 1017.8
20260831003029 72 304 3.5 8.7 0.00 0.00 0.00 69 1017.7
20260831002514 72 42 3.5 8.7 0.00 0.00 0.00 68 1017.6
20260831002018 72 342 1.7 12.2 0.00 0.00 0.00 68 1017.4
20260831001535 73 212 0.9 12.2 0.00 0.00 0.00 67 1017.3
20260831001016 73 9 2.6 10.4 0.00 0.00 0.00 68 1017.4
20260831000517 73 304 2.6 10.4 0.00 0.00 0.00 68 1017.3
20260831000019 73 38 2.6 6.1 0.00 0.00 0.00 69 1017.2
20260830235510 73 309 0.9 10.4 0.00 0.00 0.00 69 1017.0
20260830235008 74 229 1.7 10.4 0.00 0.00 0.00 68 1016.9
20260830234535 74 241 4.3 11.3 0.00 0.00 0.00 67 1016.8
20260830234015 74 173 7.0 11.3 0.00 0.00 0.00 67 1016.7
20260830233515 74 221 0.9 13.0 0.00 0.00 0.00 67 1016.8
20260830233029 74 221 4.3 13.0 0.00 0.00 0.00 68 1016.8
20260830232504 74 238 3.5 7.0 0.00 0.00 0.00 68 1016.8
20260830232004 74 229 0.9 8.7 0.00 0.00 0.00 68 1016.8
20260830231516 74 205 1.7 8.7 0.00 0.00 0.00 68 1016.8
20260830231017 74 232 2.6 8.7 0.00 0.00 0.00 69 1016.7
20260830230506 75 238 1.7 6.1 0.00 0.00 0.00 68 1016.7
20260830230033 75 309 1.7 7.8 0.00 0.00 0.00 68 1016.8
20260830225509 75 229 3.5 11.3 0.00 0.00 0.00 67 1016.8
20260830225008 75 259 5.2 11.3 0.00 0.00 0.00 67 1016.8
20260830224520 75 212 4.3 10.4 0.00 0.00 0.00 68 1016.8
20260830224012 75 241 3.5 8.7 0.00 0.00 0.00 69 1016.8
20260830223510 75 219 4.3 7.8 0.00 0.00 0.00 68 1016.6
20260830223028 75 232 3.5 9.6 0.00 0.00 0.00 69 1016.8
20260830222515 75 218 4.3 9.6 0.00 0.00 0.00 68 1016.8
20260830222013 75 218 5.2 8.7 0.00 0.00 0.00 68 1016.7
20260830221531 75 224 3.5 8.7 0.00 0.00 0.00 70 1016.7
20260830221017 75 183 5.2 8.7 0.00 0.00 0.00 68 1016.8
20260830220519 76 217 2.6 7.8 0.00 0.00 0.00 69 1016.8
20260830220011 76 198 4.3 6.1 0.00 0.00 0.00 68 1016.8
20260830215518 76 188 3.5 5.2 0.00 0.00 0.00 69 1016.7
20260830215007 76 221 3.5 5.2 0.00 0.00 0.00 66 1016.8
20260830214516 76 198 2.6 5.2 0.00 0.00 0.00 65 1016.7
20260830214008 77 205 1.7 7.0 0.00 0.00 0.00 64 1016.7
20260830213508 77 198 2.6 9.6 0.00 0.00 0.00 64 1016.8
20260830213037 77 214 5.2 13.0 0.00 0.00 0.00 62 1016.8
20260830212512 77 227 6.1 13.0 0.00 0.00 0.00 63 1016.8
20260830212012 77 201 6.1 10.4 0.00 0.00 0.00 62 1016.8
20260830211548 78 200 5.2 10.4 0.00 0.00 0.00 61 1016.8
20260830211016 78 242 4.3 9.6 0.00 0.00 0.00 61 1016.9
20260830210519 78 218 3.5 14.8 0.00 0.00 0.00 61 1016.8
20260830210025 79 236 5.2 14.8 0.00 0.00 0.00 60 1016.8
20260830205504 79 221 7.8 16.5 0.00 0.00 0.00 60 1016.9
20260830205007 79 219 9.6 17.4 0.00 0.00 0.00 59 1016.8
20260830204515 79 224 7.8 17.4 0.00 0.00 0.00 60 1016.9
20260830204006 79 225 7.0 17.4 0.00 0.00 0.00 60 1016.9
20260830203506 79 178 7.8 17.4 0.00 0.00 0.00 63 1016.9
20260830203030 78 188 6.1 16.5 0.00 0.00 0.00 63 1016.9
20260830202513 79 298 5.2 15.6 0.00 0.00 0.00 62 1016.8
20260830202023 80 210 8.7 16.5 0.00 0.00 0.00 60 1016.9
20260830201527 79 193 7.0 16.5 0.00 0.00 0.00 61 1016.9
20260830201015 79 214 5.2 13.9 0.00 0.00 0.00 61 1017.0
20260830200503 78 184 7.8 15.6 0.00 0.00 0.00 64 1016.9
20260830200009 78 231 7.0 15.6 0.00 0.00 0.00 61 1017.0
20260830195504 79 221 5.2 13.0 0.00 0.00 0.00 63 1017.0
20260830195017 78 232 7.8 13.9 0.00 0.00 0.00 58 1017.1
20260830194514 78 219 7.8 13.9 0.00 0.00 0.00 60 1017.1
20260830194004 78 200 8.7 13.9 0.00 0.00 0.00 59 1017.1
20260830193509 79 224 8.7 14.8 0.00 0.00 0.00 57 1017.2
20260830193020 79 208 7.8 14.8 0.00 0.00 0.00 57 1017.3
20260830192508 80 203 7.8 13.0 0.00 0.00 0.00 57 1017.3
20260830192021 80 225 7.8 13.0 0.00 0.00 0.00 57 1017.2
20260830191537 81 178 6.1 13.0 0.00 0.00 0.00 57 1017.3
20260830191014 80 214 5.2 13.0 0.00 0.00 0.00 57 1017.3
20260830190515 79 238 7.0 13.0 0.00 0.00 0.00 57 1017.3
20260830190031 79 195 6.1 10.4 0.00 0.00 0.00 58 1017.5
20260830185513 79 209 4.3 10.4 0.00 0.00 0.00 61 1017.6
20260830185017 79 215 7.8 10.4 0.00 0.00 0.00 59 1017.7
20260830184511 79 243 4.3 7.8 0.00 0.00 0.00 63 1017.7
20260830184017 79 221 3.5 7.8 0.00 0.00 0.00 62 1017.7
20260830183504 78 162 4.3 7.8 0.00 0.00 0.00 64 1017.8
20260830183014 78 219 3.5 10.4 0.00 0.00 0.00 64 1017.9
20260830182522 78 178 4.3 10.4 0.00 0.00 0.00 63 1017.9
20260830182014 78 194 5.2 8.7 0.00 0.00 0.00 63 1017.9
20260830181534 79 171 4.3 8.7 0.00 0.00 0.00 61 1018.0
20260830181016 78 221 3.5 7.8 0.00 0.00 0.00 63 1018.0
20260830180515 77 219 4.3 7.8 0.00 0.00 0.00 61 1018.1
20260830180245 77 195 2.6 7.0 0.00 0.00 0.00 65 1018.1
20260830180241 76 249 1.7 5.2 0.00 0.00 0.00 67 1018.2
20260830180236 77 215 0.9 6.1 0.00 0.00 0.00 62 1018.2
20260830174022 77 126 0.9 5.2 0.00 0.00 0.00 64 1018.4
20260830173517 77 196 0.9 7.0 0.00 0.00 0.00 64 1018.4
20260830173012 78 209 4.3 7.8 0.00 0.00 0.00 60 1018.5
20260830172508 77 225 3.5 7.8 0.00 0.00 0.00 63 1018.6
20260830172019 77 153 2.6 6.1 0.00 0.00 0.00 63 1018.5
20260830171518 76 205 1.7 7.0 0.00 0.00 0.00 65 1018.7
20260830171021 76 98 0.9 7.0 0.00 0.00 0.00 66 1018.6
20260830170512 76 165 0.9 3.5 0.00 0.00 0.00 66 1018.6
20260830170024 76 67 0.9 3.5 0.00 0.00 0.00 66 1018.8
20260830165510 75 291 0.0 5.2 0.00 0.00 0.00 65 1019.1
20260830165014 75 129 1.7 5.2 0.00 0.00 0.00 67 1019.2
20260830164534 75 132 1.7 3.5 0.00 0.00 0.00 67 1019.3
20260830164018 75 46 0.9 6.1 0.00 0.00 0.00 67 1019.4
20260830163517 75 221 0.9 7.8 0.00 0.00 0.00 66 1019.5
20260830163033 75 202 4.3 7.8 0.00 0.00 0.00 64 1019.4
20260830162517 75 178 2.6 7.0 0.00 0.00 0.00 67 1019.3
20260830162016 75 171 3.5 7.0 0.00 0.00 0.00 67 1019.5
20260830161549 75 137 1.7 5.2 0.00 0.00 0.00 69 1019.5
20260830161021 75 309 0.9 5.2 0.00 0.00 0.00 71 1019.5
20260830160510 75 93 0.9 6.1 0.00 0.00 0.00 70 1019.6
20260830160019 74 67 1.7 6.1 0.00 0.00 0.00 75 1019.7
20260830155510 73 156 1.7 5.2 0.00 0.00 0.00 73 1019.8
20260830155012 73 185 1.7 4.3 0.00 0.00 0.00 74 1019.8
20260830154535 73 221 1.7 7.0 0.00 0.00 0.00 74 1019.9
20260830154012 73 205 3.5 7.0 0.00 0.00 0.00 70 1019.9
20260830153512 73 225 3.5 8.7 0.00 0.00 0.00 72 1020.0
20260830153044 73 173 1.7 8.7 0.00 0.00 0.00 72 1020.1
20260830152516 72 205 3.5 7.0 0.00 0.00 0.00 72 1020.1
20260830152017 72 255 0.9 6.1 0.00 0.00 0.00 74 1020.1
20260830151531 71 205 1.7 7.0 0.00 0.00 0.00 75 1020.1
20260830151017 71 225 3.5 7.0 0.00 0.00 0.00 74 1020.2
20260830150521 70 218 2.6 5.2 0.00 0.00 0.00 74 1020.2
20260830150035 70 198 1.7 6.1 0.00 0.00 0.00 76 1020.3
20260830145509 69 215 3.5 6.1 0.00 0.00 0.00 76 1020.2